Voltar ao catálogo

STARLINK-35884

AtivoComunicaçõesVLEO
NORAD 67044·PAYLOAD·🇺🇸 United States

Lançado Dec 11, 2025 de Cape Canaveral Space Force Station

Loading…

Próximas Passagens (próximas 24 horas)

TLE

AtualizadoSource: CelesTrak SupGP

Época: Sep 14, 2026, 21:27 UTC

1 67044C 25294Q   26257.89423611  .00039059  00000+0  14146-2 0  2579
2 67044  43.0010  49.1684 0001616 279.2692 311.1291 15.27560709    15

Acompanhe STARLINK-35884 em tempo real com AllMySat

Download on the App Store